Location: Newark
(49.3000°N, 9.4667°E)
Time: 12:03:59
(UTC+00:00)

S-56A Canister/Altair - Pass Details

Date: 25 May 2019
Orbit: 633 x 2499 km, 38.9° (Epoch: 19 June)

Event Time Altitude Azimuth Distance (km) Brightness Sun altitude
Exits shadow 01:18:40 21° 212° (SSW) 2,162 9.2 -15.0°
Maximum altitude 01:22:25 35° 162° (SSE) 1,864 9.1 -14.7°
Drops below altitude 10° 01:30:48 10° 101° (ESE) 3,892 11.4 -14.0°
Sets 01:34:59 0° 95° (E) 5,202 12.2 -13.6°
